When you browse on this site, cookies collect data to enhance your experience and personalize the content and advertising you see.
Visit our Privacy Policy to learn more. By continuing to use the site, you agree to this use of cookies and data.
  • In Austria
  • List of Countries
  • For 7 days
  • Water Temperature
  • Satellite Maps
  • Weather Map
  • News
  • Weather Widgets
  • user-avatar
    Login

    Hourly Weather Copperas Cove

    Today, 22 April, Monday

    Time Temperature Precipitation Wind Pressure Humidity
    00:00 +18°C° 0 mm 7 mps 732 mmHg 87%
    01:00 +17°C° 0 mm 7 mps 732 mmHg 89%
    02:00 +17°C° 0 mm 6 mps 732 mmHg 91%
    03:00 +17°C° 0 mm 6 mps 732 mmHg 92%
    04:00 +17°C° 0 mm 6 mps 732 mmHg 92%
    05:00 +17°C° 0 mm 6 mps 732 mmHg 92%
    06:00 +18°C° 0 mm 7 mps 733 mmHg 88%
    07:00 +20°C° 0 mm 7 mps 733 mmHg 83%
    08:00 +21°C° 0 mm 8 mps 733 mmHg 79%
    09:00 +22°C° 0 mm 8 mps 733 mmHg 74%
    10:00 +24°C° 0 mm 8 mps 733 mmHg 68%
    11:00 +26°C° 0 mm 8 mps 733 mmHg 62%
    12:00 +27°C° 0 mm 8 mps 733 mmHg 61%
    13:00 +27°C° 0 mm 7 mps 733 mmHg 60%
    14:00 +28°C° 0 mm 7 mps 733 mmHg 59%
    15:00 +27°C° 0 mm 6 mps 732 mmHg 63%
    16:00 +26°C° 0 mm 5 mps 732 mmHg 67%
    17:00 +25°C° 0 mm 4 mps 732 mmHg 71%
    18:00 +24°C° 0 mm 6 mps 732 mmHg 73%
    19:00 +23°C° 0 mm 7 mps 732 mmHg 75%
    20:00 +22°C° 0 mm 8 mps 733 mmHg 77%
    21:00 +21°C° 0 mm 8 mps 733 mmHg 80%
    22:00 +21°C° 0 mm 7 mps 733 mmHg 83%
    23:00 +20°C° 0 mm 7 mps 733 mmHg 86%

    Tomorrow, 23 April, Tuesday

    Time Temperature Precipitation Wind Pressure Humidity
    00:00 +20°C° 0 mm 7 mps 732 mmHg 86%
    01:00 +20°C° 0 mm 6 mps 732 mmHg 87%
    02:00 +20°C° 0 mm 6 mps 731 mmHg 87%
    03:00 +20°C° 0.1 mm 5 mps 731 mmHg 88%
    04:00 +20°C° 0.1 mm 5 mps 731 mmHg 90%
    05:00 +20°C° 0.1 mm 4 mps 732 mmHg 91%
    06:00 +21°C° 0.1 mm 4 mps 732 mmHg 91%
    07:00 +21°C° 0.1 mm 4 mps 733 mmHg 90%
    08:00 +21°C° 0.1 mm 4 mps 733 mmHg 90%
    09:00 +22°C° 0.2 mm 5 mps 733 mmHg 88%
    10:00 +22°C° 0.2 mm 6 mps 733 mmHg 87%
    11:00 +22°C° 0.2 mm 6 mps 733 mmHg 85%
    12:00 +23°C° 0.2 mm 6 mps 732 mmHg 81%
    13:00 +24°C° 0.2 mm 7 mps 732 mmHg 77%
    14:00 +26°C° 0.2 mm 7 mps 731 mmHg 72%
    15:00 +26°C° 0.1 mm 7 mps 731 mmHg 73%
    16:00 +26°C° 0.1 mm 7 mps 730 mmHg 74%
    17:00 +24°C° 0.1 mm 7 mps 730 mmHg 75%
    18:00 +23°C° 0 mm 6 mps 730 mmHg 80%
    19:00 +22°C° 0 mm 6 mps 730 mmHg 86%
    20:00 +21°C° 0 mm 5 mps 731 mmHg 91%
    21:00 +20°C° 0.1 mm 5 mps 731 mmHg 92%
    22:00 +20°C° 0.1 mm 4 mps 731 mmHg 94%
    23:00 +20°C° 0.1 mm 4 mps 732 mmHg 95%

    Day after tomorrow, 24 April, Wednesday

    Time Temperature Precipitation Wind Pressure Humidity
    00:00 +19°C° 0 mm 4 mps 731 mmHg 96%
    01:00 +19°C° 0 mm 4 mps 731 mmHg 97%
    02:00 +19°C° 0 mm 4 mps 730 mmHg 97%
    03:00 +19°C° 0.6 mm 4 mps 730 mmHg 97%
    04:00 +19°C° 0.6 mm 5 mps 730 mmHg 97%
    05:00 +19°C° 0.6 mm 5 mps 730 mmHg 97%
    06:00 +19°C° 2.5 mm 5 mps 730 mmHg 96%
    07:00 +19°C° 2.5 mm 6 mps 730 mmHg 95%
    08:00 +20°C° 2.5 mm 6 mps 730 mmHg 94%
    09:00 +20°C° 7.1 mm 5 mps 730 mmHg 92%
    10:00 +20°C° 7.1 mm 5 mps 730 mmHg 91%
    11:00 +21°C° 7.1 mm 4 mps 729 mmHg 89%
    12:00 +19°C° 10.1 mm 5 mps 729 mmHg 90%
    13:00 +16°C° 10.1 mm 6 mps 728 mmHg 91%
    14:00 +15°C° 10.1 mm 7 mps 727 mmHg 93%
    15:00 +15°C° 1.5 mm 7 mps 727 mmHg 92%
    16:00 +16°C° 1.5 mm 6 mps 728 mmHg 91%
    17:00 +17°C° 1.5 mm 6 mps 728 mmHg 91%
    18:00 +16°C° 0.1 mm 5 mps 728 mmHg 90%
    19:00 +16°C° 0.1 mm 5 mps 729 mmHg 90%
    20:00 +15°C° 0.1 mm 4 mps 729 mmHg 90%
    21:00 +15°C° 0 mm 4 mps 729 mmHg 90%
    22:00 +16°C° 0 mm 3 mps 729 mmHg 90%
    23:00 +14°C° 0 mm 3 mps 729 mmHg 91%

    25 April, Thursday

    Time Temperature Precipitation Wind Pressure Humidity
    00:00 +14°C° 0 mm 3 mps 729 mmHg 91%
    01:00 +14°C° 0 mm 3 mps 729 mmHg 92%
    02:00 +14°C° 0 mm 4 mps 728 mmHg 93%
    03:00 +14°C° 0 mm 4 mps 729 mmHg 93%
    04:00 +13°C° 0 mm 4 mps 729 mmHg 94%
    05:00 +13°C° 0 mm 4 mps 729 mmHg 94%
    06:00 +15°C° 0 mm 4 mps 730 mmHg 88%
    07:00 +17°C° 0 mm 5 mps 730 mmHg 82%
    08:00 +20°C° 0 mm 6 mps 731 mmHg 76%
    09:00 +21°C° 0 mm 6 mps 731 mmHg 70%
    10:00 +23°C° 0 mm 6 mps 731 mmHg 64%
    11:00 +24°C° 0 mm 6 mps 731 mmHg 58%
    12:00 +26°C° 0 mm 6 mps 731 mmHg 56%
    13:00 +27°C° 0 mm 6 mps 730 mmHg 53%
    14:00 +27°C° 0 mm 6 mps 730 mmHg 51%
    15:00 +27°C° 0 mm 6 mps 730 mmHg 54%
    16:00 +26°C° 0 mm 5 mps 730 mmHg 58%
    17:00 +26°C° 0 mm 4 mps 730 mmHg 61%
    18:00 +23°C° 0 mm 4 mps 731 mmHg 65%
    19:00 +21°C° 0 mm 3 mps 732 mmHg 69%
    20:00 +19°C° 0 mm 3 mps 732 mmHg 73%
    21:00 +18°C° 0 mm 3 mps 732 mmHg 74%
    22:00 +18°C° 0 mm 3 mps 733 mmHg 75%
    23:00 +17°C° 0 mm 3 mps 733 mmHg 76%

    26 April, Friday

    Time Temperature Precipitation Wind Pressure Humidity
    00:00 +17°C° 0 mm 3 mps 733 mmHg 76%
    01:00 +16°C° 0 mm 3 mps 733 mmHg 76%
    02:00 +15°C° 0 mm 4 mps 733 mmHg 77%
    03:00 +15°C° 0 mm 4 mps 733 mmHg 75%
    04:00 +15°C° 0 mm 4 mps 734 mmHg 74%
    05:00 +14°C° 0 mm 4 mps 734 mmHg 72%
    06:00 +18°C° 0 mm 4 mps 735 mmHg 68%
    07:00 +20°C° 0 mm 5 mps 735 mmHg 64%
    08:00 +22°C° 0 mm 6 mps 736 mmHg 61%
    09:00 +23°C° 0 mm 5 mps 736 mmHg 57%
    10:00 +26°C° 0 mm 5 mps 736 mmHg 53%
    11:00 +27°C° 0 mm 5 mps 736 mmHg 50%
    12:00 +28°C° 0 mm 4 mps 736 mmHg 48%
    13:00 +28°C° 0 mm 4 mps 735 mmHg 47%
    14:00 +29°C° 0 mm 4 mps 735 mmHg 46%
    15:00 +28°C° 0 mm 4 mps 735 mmHg 50%
    16:00 +27°C° 0 mm 3 mps 735 mmHg 54%
    17:00 +27°C° 0 mm 3 mps 735 mmHg 58%
    18:00 +24°C° 0 mm 3 mps 735 mmHg 64%
    19:00 +21°C° 0 mm 2 mps 735 mmHg 69%
    20:00 +19°C° 0 mm 2 mps 735 mmHg 74%
    21:00 +19°C° 0 mm 2 mps 735 mmHg 77%
    22:00 +18°C° 0 mm 2 mps 735 mmHg 79%
    23:00 +18°C° 0 mm 2 mps 735 mmHg 82%

    27 April, Saturday

    Time Temperature Precipitation Wind Pressure Humidity
    00:00 +17°C° 0 mm 2 mps 734 mmHg 83%
    01:00 +17°C° 0 mm 2 mps 734 mmHg 85%
    02:00 +16°C° 0 mm 2 mps 734 mmHg 87%
    03:00 +16°C° 0 mm 2 mps 734 mmHg 87%
    04:00 +16°C° 0 mm 2 mps 734 mmHg 87%
    05:00 +16°C° 0 mm 2 mps 734 mmHg 87%
    06:00 +18°C° 0 mm 2 mps 734 mmHg 79%
    07:00 +20°C° 0 mm 3 mps 735 mmHg 71%
    08:00 +24°C° 0 mm 3 mps 735 mmHg 64%
    09:00 +25°C° 0 mm 3 mps 735 mmHg 58%
    10:00 +27°C° 0 mm 4 mps 734 mmHg 53%
    11:00 +28°C° 0 mm 4 mps 734 mmHg 48%
    12:00 +29°C° 0 mm 3 mps 734 mmHg 45%
    13:00 +30°C° 0 mm 3 mps 733 mmHg 43%
    14:00 +30°C° 0 mm 3 mps 732 mmHg 40%
    15:00 +30°C° 0 mm 3 mps 732 mmHg 45%
    16:00 +29°C° 0 mm 3 mps 732 mmHg 50%
    17:00 +28°C° 0 mm 3 mps 732 mmHg 56%
    18:00 +26°C° 0 mm 4 mps 732 mmHg 61%
    19:00 +23°C° 0 mm 4 mps 732 mmHg 67%
    20:00 +21°C° 0 mm 4 mps 732 mmHg 73%
    21:00 +21°C° 0 mm 4 mps 732 mmHg 73%
    22:00 +21°C° 0 mm 4 mps 732 mmHg 73%
    23:00 +20°C° 0 mm 4 mps 732 mmHg 74%
    Show more